Regional Weather Roundup
Issued by NWS Wakefield, VA

Home | Current Version | Previous Version | Graphics & Text | Print | Product List | Glossary On
Versions: 1 2 3 4 5 6 7 8 9 10 11 12 13 14 15 16 17 18 19 20 21 22 23 24 25 26 27 28 29 30 31 32 33 34 35 36 37 38 39 40 41 42 43 44 45 46 47 48 49 50
000
ASUS41 KAKQ 040615
RWRAKQ

REGIONAL WEATHER ROUNDUP
NATIONAL WEATHER SERVICE WAKEFIELD VA
200 AM EDT TUE AUG 04 2015

Note: "fair" indicates few or no clouds below 12,000 feet with no
significant weather and/or obstructions to visibility. * = Denotes
station may not report precipitation (e.g., rain,snow,etc.),
thunder or fog.

VAZ042-051-052>054-056-040700-
NORTHERN VIRGINIA

CITY           SKY/WX    TMP DP  RH WIND       PRES   REMARKS
WASH NATIONAL  MOCLDY    81  68  64 S8        29.85R
DULLES         PTCLDY    74  64  71 S8        29.85S
FORT BELVOIR   CLEAR     74  67  80 S2        29.85S
QUANTICO       NOT AVBL
FREDERICKSBRG* PTCLDY    78  69  74 SW7       29.86S
STAFFORD*      PTCLDY    74  66  78 CALM      29.91R
WARRENTON      CLEAR     72  67  85 CALM      29.86F
CULPEPER*      PTCLDY    70  64  83 S3        29.88S
MANASSAS*      CLEAR     68  68 100 S3        29.85F
LEESBURG*      CLEAR     73  68  83 W7        29.85F
WINCHESTER     PTCLDY    77  63  61 SW6       29.87S
FRONT ROYAL*   FAIR      73  63  68 SW5       29.87S
LURAY*         FAIR      73  63  68 SW3       29.89S
$$

VAZ048-049-060>072-079>083-040700-
CENTRAL AND SOUTH CENTRAL VIRGINIA

CITY           SKY/WX    TMP DP  RH WIND       PRES   REMARKS
RICHMOND       PTCLDY    78  71  79 S7        29.89S
CHESTERFIELD*  FAIR      79  63  57 S6        29.91S
PETERSBURG*    CLEAR     77  75  96 S5        29.91F
HANOVER        PTCLDY    79  70  74 S7        29.90S
TAPPAHANNOCK*  PTCLDY    78  69  74 S5        29.89R
QUINTON*       FAIR      78  73  84 S5        29.89S
CHARLOTTSVILLE MOCLDY    73  64  73 S3        29.88F
GORDONSVILLE*  FAIR      66  64  94 CALM      29.88F
ORANGE*        PTCLDY    70  66  88 CALM      29.89F
LOUISA*        PTCLDY    73  68  83 S3        29.88F
BUMPASS*       FAIR      73  68  84 SW3       29.88S
FARMVILLE*     MOCLDY    76  68  77 SW6       29.90S
CREWE*         FAIR     N/A N/A N/A SW6       29.91S
FORT PICKETT*  FAIR      76  71  83 S9        29.92S
CHASE CITY*    FAIR      78  74  86 CALM      29.94S
CLARKSVILLE*   FAIR      75  70  83 S10G16    29.93F
SOUTH HILL*    CLEAR     74  70  89 S7        29.99F
LAWRENCEVILLE* FAIR      75  72  88 S6        29.93S
EMPORIA*       CLEAR     73  72  94 SE6       29.94S
$$

VAZ088>098-040700-
SOUTHEAST VIRGINIA

CITY           SKY/WX    TMP DP  RH WIND       PRES   REMARKS
NORFOLK        CLEAR     77  71  82 S16       29.93S
VIRGINIA BEACH CLEAR     79  72  79 SW15      29.93S
NORFOLK NAVAL  CLEAR     76  71  85 S12G18    29.94S
WEST POINT*    CLEAR     81  73  75 SW10      29.90F
SALUDA*        FAIR      79  74  85 SW9G18    29.88F
NEWPORT NEWS   CLEAR     78  73  84 SW14      29.92S
LANGLEY AFB    CLEAR     78  73  85 S13       29.92R
FORT EUSTIS    CLEAR     78  78 100 S7        29.90S
WILLIAMSBURG*  CLEAR     81  75  83 S7        29.92S
HR EXEC AP*    FAIR      75  70  83 S8        29.96S
FRANKLIN*      CLEAR     75  72  90 S8        29.94S
WAKEFIELD      CLEAR     77  72  84 S5        29.92S
$$

VAZ020-022-025-037-045-040700-
WEST CENTRAL AND SOUTHWEST VIRGINIA

CITY           SKY/WX    TMP DP  RH WIND       PRES   REMARKS
STAUNTON*      CLOUDY    72  62  72 CALM      29.94F
WAYNESBORO*    FAIR      72  61  66 SW6       29.93F
HOT SPRINGS VA CLOUDY    70  59  67 W18       30.07R
LYNCHBURG      CLOUDY    67  64  90 S3        29.95S
DANVILLE       MOCLDY    75  68  78 SW5       29.96R
SOUTH BOSTON*  FAIR      75  69  80 SW5       29.94S
MARTINSVILLE   MOCLDY    68  68 100 CALM      30.00R
ROANOKE        CLOUDY    75  60  59 W8        29.98F
BLACKSBURG     CLOUDY    69  62  78 CALM      30.05F
DUBLIN*          N/A     71  62  74 SW5       30.04F
MARION*        CLOUDY    66  61  84 CALM      30.09F
HILLSVILLE*    CLOUDY    68  59  73 S7        30.06F
RICHLANDS*     CLOUDY    72  61  68 N5        30.08S
WISE*          MOCLDY    70  61  73 CALM      30.09F
ABINGDON*      PTCLDY    67  61  81 CALM      30.06S
$$

MDZ021>025-VAZ099-100-040700-
SOUTHERN MARYLAND AND THE DELMARVA PENINSULA

CITY           SKY/WX    TMP DP  RH WIND       PRES   REMARKS
PATUXENT RIVER PTCLDY    78  73  84 SW9       29.85F
BAY BRIDGE APT   N/A     79  72  78 S8        29.84S
LEONARDTOWN    PTCLDY    79  70  73 SW7       29.88R
DOVER          CLEAR     78  77  98 S12       29.82S
GEORGETOWN     CLEAR     76  74  93 S8        29.86F
EASTON         CLEAR     80  75  86 SW7       29.88S
CAMBRIDGE      CLEAR     79  72  78 S3        29.85S
SALISBURY      CLEAR     76  75  97 S8        29.87S
OCEAN CITY     CLEAR     80  75  84 SW14G22   29.87F
WALLOPS ISLAND CLEAR     78  77  96 S13       29.88F
ACCOMACK*      CLEAR     79  79 100 SW9       29.90S
$$

NCZ012>017-030>032-040700-
NORTH CENTRAL AND EASTERN NORTH CAROLINA

CITY           SKY/WX    TMP DP  RH WIND       PRES   REMARKS
ROANOKE RAPIDS FAIR      73  70  88 S8        29.95S
RALEIGH        MOCLDY    77  70  79 SW10      29.97S
ELIZABETH CITY CLEAR     77  74  90 SW12      29.97R
AHOSKIE*       CLEAR     74  71  90 S5        29.95F
EDENTON*       PTCLDY    76  73  91 SW10      29.97S
CURRITUCK*     CLEAR     78  73  85 SW8       29.97S
KILL DEVIL HLS CLEAR     79  74  86 SW9       29.96S
MANTEO         CLEAR     79  75  89 SW16      29.98S
CAPE HATTERAS  MOCLDY    80  75  84 SW14      30.00S
TARBORO*         N/A     75  73  91 S5        29.97S
GOLDSBORO      CLEAR     76  74  95 S3        29.95F
WASHINGTON     CLEAR     75  73  94 CALM      29.98F
GREENVILLE     CLEAR     77  73  88 SW9       29.99F
NEW BERN       MOCLDY    78  75  90 SW3       30.00S
WILMINGTON     MOCLDY    80  76  87 S5        29.98S
$$

VAZ048-040700-
ELSEWHERE

CITY           SKY/WX    TMP DP  RH WIND       PRES   REMARKS
HARRISBURG PA  CLOUDY    75  60  59 CALM      29.83R
BALTIMORE      PTCLDY    75  66  73 W3        29.83S
ANNAPOLIS      CLEAR     79  67  66 VRB6      29.83S
ANDREWS AFB    CLEAR     77  67  71 SW10      29.85R
PHILADELPHIA   MOCLDY    81  68  64 W6        29.84R
HENDERSON NC   CLEAR     76  65  69 S10       29.96S
GREENSBORO     MOCLDY    76  68  76 SW9       29.97S
ROCKY MOUNT    CLEAR     76  74  93 SW8       29.96F
$$

VAZ100-040700-
MARINE

STATION/POSITION TIME  TEMP    WIND        PRES    WAVE   SWELL
                       AIR SEA DIR/SP/G            HT/PER HT/PER
                 (UTC) (F)     (DEG/KT/KT) (MB)    (FT/S) (FT/S)
BRANDYWINE LGT   0500   76 74  210/ 16/ 17 1011.0F
CAPE MAY NJ      0500   76 78  200/  9/ 13 1010.8R
LEWES DE         0500   80 74  220/  7/ 10 1010.9S
15NM E FENWICK I 0550   80 79  200/ 19/ 23 1011.5R   6/ 7   3/11
OCEAN-CITY-INLET 0500   77 75  210/ 13/ 16 1010.9F
WACHAPREAGUE VA  0500   80 84  230/ 10/ 14 1012.6R
GOOSES REEF MD   0600   82 82  220/ 12/ 16 1011.8R
COVE POINT MD    0500   80     220/ 11/ 13 1011.5S
SOLOMONS ISLAND  0500      83                N/A
BISHOPS HEAD MD  0500   82 82  200/ 17/ 21 1010.2R
PINEY POINT MD   0500          230/ 16/ 19   N/A
POTOMAC MD       0600   81 83  230/ 17/ 21 1010.3F   2/ 3
CAMBRIDGE MD     0500   81 84  180/  5/  8 1010.0S
LEWISETTA VA     0500   80 85  220/ 13/ 17 1010.9F
RAPPAHANNOCK LGT 0500          200/ 22/ 24 1012.5R
STINGRAY PT      0600   82 83  220/ 14/ 17 1012.0S   2/ 2
YORK RVR RNG VA  0500   81     220/ 16/ 21 1012.0R
YORKTOWN VA      0500   81 84  220/ 11/ 15 1012.3R
JAMESTOWN VA     0600   79 85  200/ 12/ 16   N/A
DOMINION TERM VA 0500   79     210/ 16/ 18 1013.0R
KIPTOPEKE VA     0500      82  220/ 19/ 22   N/A
CHES BAY BRIDGE  0500   79 79  190/ 18/ 20 1012.7R
CAPE HENRY VA    0500   77     200/ 12/ 19   N/A
CHESAPEAKE LGHT  0500   79     210/ 23/ 25 1013.6F
WILLOUBY STN VA  0500   79     210/ 16/ 18 1014.2R
CAPE HENRY BUOY  0528      80                N/A     4/ 4   2/11
1ST LANDING BUOY 0600      77              1013.0S   1/ 3
CAPE CHARLES BUO 0526      77                N/A     3/12   2/12
OFFSHORE WE BUOY 0511      82                N/A     5/ 6   2/11
64NM E OF VA BCH 0550   80 81  210/ 25/ 31 1013.5F   6/ 6   2/11
DUCK PIER NC     0500   78 64  200/ 15/ 21 1013.8R
44100 DUCK FRF   0524      78                N/A     3/ 6
44056 DUCK FRF   0511      70                N/A     2/ 5
OREGON INLET NC  0500   80 80  190/ 19/ 22 1015.0F
HATTERAS NC      0500   79 79  190/  6/ 10 1015.5F
DIAMOND SHLS NC  0550   82 84  190/ 19/ 23 1015.8S   5/ 5   2/11
CAPE LOOKOUT NC  0600   81     200/  9/ 12 1015.3F
$$


USA.gov is the U.S. government's official web portal to all federal, state and local government web resources and services.